TimeEST,TemperatureF,Dew PointF,Humidity,Sea Level PressureIn,VisibilityMPH,Wind Direction,Wind SpeedMPH,Gust SpeedMPH,PrecipitationIn,Events,Conditions,WindDirDegrees,DateUTC
12:15 AM,64.4,62.6,94,30.13,10.0,South,8.1,-,N/A,,Clear,190,2013-12-07 05:15:00
12:35 AM,64.4,62.6,94,30.12,10.0,South,6.9,-,N/A,,Clear,190,2013-12-07 05:35:00
12:55 AM,64.4,62.6,94,30.12,10.0,SSW,5.8,-,N/A,,Clear,200,2013-12-07 05:55:00
1:15 AM,66.2,62.6,88,30.12,10.0,Calm,Calm,-,N/A,,Clear,0,2013-12-07 06:15:00
1:35 AM,66.2,62.6,88,30.12,10.0,Calm,Calm,-,N/A,,Clear,0,2013-12-07 06:35:00
1:55 AM,66.2,62.6,88,30.11,10.0,South,5.8,-,N/A,,Clear,190,2013-12-07 06:55:00
2:15 AM,64.4,62.6,94,30.11,10.0,South,5.8,-,N/A,,Clear,190,2013-12-07 07:15:00
2:35 AM,64.4,62.6,94,30.11,10.0,South,5.8,-,N/A,,Clear,190,2013-12-07 07:35:00
2:55 AM,64.4,60.8,88,30.12,10.0,SSW,3.5,-,N/A,,Clear,200,2013-12-07 07:55:00
3:15 AM,66.2,62.6,88,30.12,10.0,SSW,3.5,-,N/A,,Clear,210,2013-12-07 08:15:00
3:35 AM,66.2,62.6,88,30.12,10.0,Calm,Calm,-,N/A,,Clear,0,2013-12-07 08:35:00
3:55 AM,66.2,62.6,88,30.12,10.0,Calm,Calm,-,N/A,,Clear,0,2013-12-07 08:55:00
4:15 AM,66.2,62.6,88,30.12,10.0,Calm,Calm,-,N/A,,Clear,0,2013-12-07 09:15:00
4:35 AM,68.0,62.6,83,30.12,10.0,SW,3.5,-,N/A,,Clear,220,2013-12-07 09:35:00
4:55 AM,68.0,62.6,83,30.13,10.0,SSW,8.1,-,N/A,,Clear,210,2013-12-07 09:55:00
5:15 AM,68.0,62.6,83,30.13,10.0,SW,8.1,-,N/A,,Clear,220,2013-12-07 10:15:00
5:35 AM,68.0,62.6,83,30.13,10.0,SW,6.9,-,N/A,,Clear,220,2013-12-07 10:35:00
5:50 AM,68.0,62.6,83,30.11,10.0,SW,11.5,-,N/A,,Clear,220,2013-12-07 10:50:00
6:45 AM,68.0,62.6,83,30.12,10.0,SW,9.2,-,N/A,,Clear,220,2013-12-07 11:45:00
7:45 AM,68.0,62.6,83,30.14,10.0,SW,11.5,-,N/A,,Clear,230,2013-12-07 12:45:00
8:45 AM,69.8,64.4,83,30.16,10.0,WSW,9.2,-,N/A,,Scattered Clouds,240,2013-12-07 13:45:00
9:45 AM,73.4,64.4,73,30.18,10.0,WSW,9.2,-,N/A,,Scattered Clouds,250,2013-12-07 14:45:00
10:24 AM,73.4,64.4,73,30.19,10.0,West,11.5,-,N/A,,Mostly Cloudy,260,2013-12-07 15:24:00
10:45 AM,73.4,64.4,73,30.19,10.0,West,9.2,-,N/A,,Overcast,270,2013-12-07 15:45:00
11:45 AM,71.6,64.4,78,30.19,7.0,WNW,9.2,-,N/A,,Mostly Cloudy,300,2013-12-07 16:45:00
12:08 PM,71.6,64.4,78,30.18,5.0,North,16.1,24.2,N/A,Rain,Light Rain,10,2013-12-07 17:08:00
12:45 PM,55.4,53.6,94,30.20,2.0,North,18.4,25.3,N/A,Rain,Light Rain,350,2013-12-07 17:45:00
1:10 PM,55.4,51.8,88,30.21,4.0,North,12.7,-,N/A,Rain,Light Rain,10,2013-12-07 18:10:00
1:47 PM,53.6,50.0,88,30.21,7.0,North,16.1,-,N/A,,Overcast,10,2013-12-07 18:47:00
2:50 PM,51.8,48.2,88,30.24,5.0,NNE,11.5,-,N/A,,Overcast,20,2013-12-07 19:50:00
3:50 PM,48.2,46.4,93,30.26,7.0,NNE,17.3,-,N/A,,Overcast,30,2013-12-07 20:50:00
4:45 PM,48.2,46.4,93,30.27,8.0,NNE,17.3,-,N/A,,Overcast,30,2013-12-07 21:45:00
5:45 PM,48.2,44.6,87,30.29,8.0,NE,15.0,-,N/A,,Overcast,40,2013-12-07 22:45:00
6:45 PM,46.4,44.6,93,30.32,10.0,NE,12.7,-,N/A,,Overcast,40,2013-12-07 23:45:00
7:45 PM,46.4,44.6,93,30.35,10.0,NNE,12.7,19.6,N/A,,Overcast,30,2013-12-08 00:45:00
8:45 PM,46.4,44.6,93,30.36,10.0,NNE,13.8,-,N/A,,Overcast,30,2013-12-08 01:45:00
9:45 PM,44.6,42.8,93,30.38,10.0,NNE,13.8,-,N/A,,Overcast,30,2013-12-08 02:45:00
10:55 PM,44.6,42.8,93,30.39,10.0,NE,12.7,19.6,N/A,,Overcast,40,2013-12-08 03:55:00
11:15 PM,44.6,42.8,93,30.38,10.0,NE,13.8,21.9,N/A,,Overcast,50,2013-12-08 04:15:00
11:35 PM,44.6,42.8,93,30.38,10.0,NNE,10.4,20.7,N/A,,Overcast,30,2013-12-08 04:35:00
11:55 PM,44.6,42.8,93,30.38,10.0,NNE,9.2,17.3,N/A,,Overcast,30,2013-12-08 04:55:00